User: anonymous   Login
Location: Maiden_LMO
(35.5760°N, 81.2120°W)
Time: 20:11:10
(UTC-04:00)
Language:

Cosmos 2278 Rocket - Orbit

View from above orbital plane
View from above orbital plane
View from above satellite
View from above satellite

Ground track
Ground track

The orbit data is extracted from the following two-line orbital elements,

1 23088U 94023B   17177.25330921 -.00000091 +00000-0 -22364-4 0  9990
2 23088 071.0012 263.0261 0001028 070.2509 289.8724 14.14660141196552
Epoch (UTC): 26 June 2017 06:04:45
Eccentricity: 0.0001028
inclination: 71.0012°
perigee height: 843 km
apogee height: 844 km
right ascension of ascending node: 263.0261°
argument of perigee: 70.2509°
revolutions per day: 14.14660141
mean anomaly at epoch: 289.8724°
orbit number at epoch: 19655

The dashed part of the orbit path shows where the satellite is in the earth's shadow,  

DLR